[[{"header":{"parameterUnit":"m.s-1","parameterCategory":2,"la1":30.2991,"la2":30.254,"lo1":-89.0895,"lo2":-89.0444,"dy":0.0017,"dx":0.0017,"nx":28,"ny":28,"refTime":"2025-06-11T09:00:00:Z","depth":"0","parameterNumber":2,"parameterNumberName":"U-component_of_CURRENTS"},"data":[0,0,0,0,0,0,0,0,0,0,0,0,0,0,0,0,0,0,0,0,0,0,0,0,0,0,0,0,0,0,0,0,0,0,0,0,0,0,0,0,0,0,0,0,0,0,0,0,0,0,0,0,0,0,0,0,0,0,0.2417,0.2417,0,0.2395,0.2394,0.2394,0.2368,0.2368,0.2368,0.2367,0.2337,0.2336,0.2336,0,0,0,0,0,0,0,0,0,0,0,0,0,0.246,0.2459,0.2417,0.2417,0.2417,0.2395,0.2394,0.2394,0.2368,0.2368,0.2368,0.2367,0.2337,0.2336,0.2336,0,0,0,0,0,0,0,0,0,0,0,0,0,0.2439,0.2459,0.2417,0.2402,0.2401,0.2395,0.2394,0.2394,0.2368,0.2368,0.2368,0.2367,0.2337,0.2336,0.2335,0.2339,0,0,0.2333,0.2333,0,0,0,0,0,0,0,0,0.244,0.2437,0.2405,0.2403,0.2402,0.2385,0.2398,0.2376,0.2369,0.238,0.2367,0.2367,0.2353,0.2351,0.2346,0.2338,0.2336,0.2333,0.2332,0.2332,0.2332,0,0,0,0,0,0,0,0.2442,0.2438,0.2407,0.2405,0.2403,0.2404,0.24,0.2394,0.2368,0.2379,0.2377,0.2376,0.2352,0.2347,0.2345,0.2336,0.2333,0.2332,0.2332,0.2331,0.239,0.2392,0,0,0,0,0,0,0.2446,0.244,0.2408,0.2407,0.2421,0.2404,0.2399,0.239,0.2368,0.2365,0.2377,0.2375,0.2349,0.2346,0.2344,0.2385,0.2332,0.2331,0.2331,0.2388,0.2391,0.2393,0,0,0,0,0,0,0.2446,0.2443,0.2409,0.2424,0.242,0.2403,0.2393,0.239,0.239,0.2367,0.2363,0.2381,0.2348,0.2345,0.2354,0.2382,0.2331,0.233,0.2386,0.2389,0.2392,0.2441,0,0,0,0,0,0,0.2448,0.2443,0.2441,0.2424,0.2419,0.2416,0.2393,0.239,0.239,0.2388,0.237,0.2366,0.2348,0.2356,0.2354,0.238,0.233,0.2383,0.2387,0.2391,0.2437,0.2446,0.2453,0,0,0,0,0,0.2449,0.2448,0.2441,0.2437,0.2415,0.2416,0.2415,0.2401,0.2391,0.2398,0.239,0.2367,0.2379,0.2357,0.2353,0.238,0.2381,0.2386,0.2391,0.2434,0.2444,0.2453,0,0,0,0,0,0,0.2465,0.2445,0.2436,0.2429,0.2428,0.2413,0.2416,0.2409,0.2407,0.2406,0.2383,0.2379,0.2406,0.2389,0.2365,0.2413,0.2381,0.2385,0.2415,0.2425,0.2432,0.2457,0.2329,0,0,0,0,0,0.2469,0.2461,0.2449,0.2445,0.2446,0.2434,0.2433,0.2426,0.2421,0.2419,0.2408,0.2407,0.2423,0.2419,0.2428,0.2439,0.2474,0.2461,0.2469,0.2475,0.2497,0.26,0.262,0.2408,0.2408,0.2408,0,0,0.2472,0.2462,0.2456,0.2448,0.2444,0.2452,0.2432,0.2437,0.2448,0.2417,0.243,0.2437,0.2437,0.2462,0.2472,0.2446,0.255,0.2481,0.2487,0.2505,0.2607,0.2628,0.2646,0.2411,0.2411,0.241,0,0,0.248,0.247,0.2469,0.2472,0.2473,0.247,0.2476,0.247,0.2473,0.2487,0.2483,0.2511,0.2507,0.2524,0.2531,0.259,0.2599,0.2589,0.2634,0.2733,0.2752,0.2769,0.2819,0.284,0.2581,0.2581,0.2581,0,0.2488,0.2478,0.2472,0.2479,0.2484,0.2482,0.2492,0.2501,0.25,0.252,0.25,0.2557,0.2545,0.2605,0.2621,0.2609,0.2655,0.259,0.2745,0.2762,0.2779,0.2826,0.2849,0.2584,0.2584,0.2583,0.2583,0,0.2494,0.2493,0.2498,0.2502,0.2514,0.2522,0.2535,0.2554,0.256,0.2574,0.2637,0.2641,0.2681,0.268,0.266,0.2769,0.2759,0.2752,0.2719,0.2803,0.2847,0.287,0.2588,0.2587,0.2586,0.2586,0,0,0.2486,0.2498,0.2498,0.2506,0.2525,0.2533,0.2572,0.2608,0.2653,0.267,0.2742,0.2765,0.2788,0.2801,0.2797,0.2863,0.2994,0.2853,0.2857,0.29,0.3197,0.3038,0.3047,0.3023,0.3028,0.3032,0.3173,0,0.249,0.25,0.2511,0.2533,0.254,0.2567,0.2607,0.2649,0.2692,0.2766,0.2808,0.2873,0.2829,0.2863,0.2929,0.2998,0.306,0.2955,0.3112,0.3116,0.2964,0.3071,0.2847,0.2942,0.3195,0.3199,0.3201,0,0.2482,0.2492,0.2505,0.2547,0.2556,0.2577,0.2654,0.2695,0.2804,0.2848,0.2934,0.2979,0.3085,0.3039,0.3203,0.3144,0.3179,0.3213,0.322,0.3075,0.3001,0.2904,0.2973,0.2869,0.3236,0.3233,0.3231,0,0.2457,0.2487,0.2495,0.2505,0.2556,0.2582,0.2622,0.2716,0.2782,0.2919,0.3003,0.3119,0.3205,0.3293,0.3335,0.3304,0.3508,0.3475,0.336,0.3348,0.3188,0.3153,0.3173,0.3602,0.3602,0.3602,0.3601,0,0.2442,0.245,0.2482,0.2485,0.2524,0.257,0.2648,0.271,0.2844,0.2947,0.305,0.3162,0.3283,0.3393,0.3415,0.3451,0.3577,0.3399,0.3393,0.3192,0.3157,0.3081,0.3058,0.3607,0.3606,0.3605,0.3604,0,0.2404,0.2422,0.2437,0.2486,0.2506,0.2534,0.2648,0.2724,0.285,0.3001,0.3058,0.3248,0.3375,0.3446,0.3592,0.354,0.3456,0.3557,0.3278,0.3235,0.2985,0.2972,0.2863,0.2793,0.3478,0.3475,0.3472,0,0.2384,0.2383,0.2423,0.2443,0.2462,0.2522,0.2581,0.2704,0.2795,0.3037,0.3115,0.3293,0.3371,0.3502,0.3433,0.3432,0.3363,0.324,0.3125,0.2962,0.2948,0.2804,0.2745,0.2941,0.2934,0.2929,0.2925,0,0.2352,0.2361,0.2376,0.242,0.2464,0.2524,0.2612,0.2679,0.2847,0.2969,0.3126,0.321,0.3284,0.3175,0.3151,0.313,0.3017,0.3125,0.3066,0.2621,0.2365,0.2294,0.2835,0.2877,0.2882,0.2885,0.2888,0.289,0.2331,0.2334,0.2364,0.24,0.2454,0.2512,0.2545,0.264,0.2749,0.2872,0.3014,0.3028,0.296,0.2868,0.2831,0.2586,0.2653,0.2477,0.2507,0.2399,0.2221,0.2617,0.2573,0.2575,0.2578,0.258,0.2582,0,0.231,0.2323,0.2355,0.2399,0.2438,0.2478,0.2564,0.2578,0.2639,0.2683,0.2747,0.2602,0.2452,0.2376,0.213,0.199,0.1888,0.1946,0.1735,0.1741,0.2194,0.2056,0.1762,0.1762,0.1763,0.1763,0.1763,0.1763,0.2305,0.2315,0.2328,0.2369,0.24,0.2424,0.2443,0.2439,0.2437,0.2325,0.2187,0.2162,0.2076,0.1845,0.1627,0.159,0.1474,0.1293,0.1417,0.1762,0.1814,0.1864,0.1728,0.137,0.137,0.0802,0.0798,0.0794]},{"header":{"parameterUnit":"m.s-1","parameterCategory":2,"la1":30.2991,"la2":30.254,"lo1":-89.0895,"lo2":-89.0444,"dy":0.0017,"dx":0.0017,"nx":28,"ny":28,"refTime":"2025-06-11T09:00:00:Z","depth":"0","parameterNumber":3,"parameterNumberName":"V-component_of_CURRENTS"},"data":[0,0,0,0,0,0,0,0,0,0,0,0,0,0,0,0,0,0,0,0,0,0,0,0,0,0,0,0,0,0,0,0,0,0,0,0,0,0,0,0,0,0,0,0,0,0,0,0,0,0,0,0,0,0,0,0,0,0,0.0331,0.0331,0,0.0326,0.0326,0.0326,0.0318,0.0317,0.0317,0.0317,0.0299,0.0299,0.0298,0,0,0,0,0,0,0,0,0,0,0,0,0,0.0318,0.0318,0.0331,0.0331,0.0331,0.0326,0.0326,0.0326,0.0318,0.0317,0.0317,0.0317,0.0299,0.0299,0.0298,0,0,0,0,0,0,0,0,0,0,0,0,0,0.0319,0.0318,0.0331,0.0327,0.0326,0.0326,0.0326,0.0326,0.0318,0.0317,0.0317,0.0317,0.0299,0.0299,0.0298,0.0298,0,0,0.0297,0.0296,0,0,0,0,0,0,0,0,0.0319,0.0319,0.0328,0.0327,0.0327,0.0323,0.0314,0.0316,0.0318,0.0321,0.0317,0.0317,0.0306,0.0305,0.0304,0.0297,0.0296,0.0297,0.0296,0.0296,0.0296,0,0,0,0,0,0,0,0.0319,0.032,0.0329,0.0328,0.0327,0.0319,0.0319,0.0315,0.0314,0.032,0.032,0.032,0.0306,0.0305,0.0304,0.0296,0.0297,0.0296,0.0296,0.0295,0.0302,0.0302,0,0,0,0,0,0,0.0322,0.032,0.0329,0.0329,0.0323,0.032,0.032,0.0324,0.0314,0.0313,0.032,0.0319,0.0306,0.0304,0.0303,0.0325,0.0296,0.0295,0.0295,0.0301,0.0302,0.0302,0,0,0,0,0,0,0.0321,0.0323,0.0329,0.0324,0.0324,0.032,0.0325,0.0324,0.0325,0.0314,0.0312,0.0322,0.0305,0.0304,0.0306,0.0323,0.0295,0.0295,0.0301,0.0301,0.0302,0.0354,0,0,0,0,0,0,0.0321,0.0323,0.0325,0.0324,0.0325,0.0336,0.0325,0.0324,0.0325,0.0324,0.0315,0.0313,0.0305,0.0307,0.0306,0.0322,0.0294,0.03,0.0301,0.0302,0.0352,0.0356,0.0361,0,0,0,0,0,0.0321,0.0329,0.0326,0.0327,0.0329,0.0336,0.0336,0.0332,0.0325,0.0331,0.0325,0.0314,0.0312,0.0307,0.0305,0.0322,0.0299,0.0301,0.0302,0.035,0.0355,0.036,0,0,0,0,0,0,0.0323,0.0329,0.0325,0.0334,0.0337,0.0335,0.034,0.0335,0.0334,0.0332,0.032,0.0319,0.0327,0.0315,0.031,0.0325,0.0304,0.0305,0.0341,0.0346,0.035,0.0375,0.0294,0,0,0,0,0,0.0326,0.0335,0.0336,0.0343,0.0346,0.0342,0.0344,0.034,0.034,0.0339,0.0334,0.0328,0.033,0.0331,0.0326,0.0335,0.0334,0.0343,0.0348,0.0352,0.037,0.0383,0.0391,0.0306,0.0306,0.0306,0,0,0.0327,0.0332,0.0336,0.0344,0.0345,0.0361,0.0343,0.0349,0.0364,0.0337,0.0354,0.0342,0.0334,0.0346,0.0349,0.034,0.0373,0.0353,0.0357,0.0373,0.0385,0.0393,0.0401,0.0307,0.0307,0.0307,0,0,0.0343,0.0342,0.0357,0.0364,0.037,0.0372,0.0375,0.0376,0.0379,0.039,0.0377,0.038,0.0376,0.0382,0.0382,0.0408,0.0394,0.0399,0.0446,0.0458,0.0466,0.0472,0.0474,0.0481,0.0404,0.0404,0.0404,0,0.0345,0.0366,0.0362,0.0381,0.0395,0.0381,0.0405,0.0408,0.0409,0.0423,0.0402,0.0417,0.0399,0.0433,0.0437,0.0421,0.0421,0.0427,0.0466,0.0472,0.0478,0.0479,0.0485,0.0407,0.0406,0.0406,0.0406,0,0.0376,0.0393,0.0404,0.0428,0.044,0.0456,0.0463,0.0474,0.0472,0.0478,0.0503,0.0485,0.0501,0.0487,0.0469,0.0505,0.0488,0.0469,0.0456,0.049,0.0488,0.0494,0.041,0.0409,0.0409,0.0408,0,0,0.0386,0.042,0.0425,0.0451,0.0468,0.0487,0.0514,0.0544,0.0582,0.0568,0.0622,0.0603,0.0596,0.0596,0.0574,0.0577,0.0602,0.0542,0.0542,0.0551,0.0627,0.0587,0.0589,0.059,0.0591,0.0592,0.0606,0,0.0415,0.0464,0.0473,0.0526,0.0556,0.0562,0.0598,0.0621,0.0637,0.0682,0.0668,0.0704,0.0638,0.0656,0.0646,0.0629,0.0621,0.06,0.0586,0.0586,0.0553,0.0596,0.0617,0.0629,0.0611,0.0612,0.0613,0,0.0447,0.048,0.0534,0.0595,0.061,0.0639,0.0708,0.074,0.0787,0.0804,0.0826,0.0821,0.0839,0.0773,0.0756,0.0746,0.069,0.0657,0.0657,0.0611,0.0558,0.0592,0.064,0.0623,0.0622,0.0621,0.062,0,0.0471,0.0527,0.0576,0.0594,0.0655,0.0688,0.0725,0.0776,0.0833,0.0893,0.0953,0.0947,0.0985,0.0916,0.0837,0.0806,0.081,0.076,0.0667,0.0663,0.0675,0.0669,0.0714,0.0736,0.0736,0.0736,0.0736,0,0.0506,0.0547,0.0593,0.0624,0.0702,0.0729,0.0822,0.0857,0.0939,0.1044,0.1025,0.1117,0.1025,0.1012,0.0897,0.0814,0.0856,0.0693,0.0673,0.069,0.0686,0.0665,0.063,0.0737,0.0737,0.0736,0.0736,0,0.0527,0.0553,0.0618,0.0686,0.0715,0.0772,0.0885,0.0963,0.1031,0.1174,0.1209,0.1266,0.1261,0.1141,0.1054,0.092,0.0798,0.0766,0.0784,0.0765,0.0642,0.0608,0.0613,0.0585,0.0678,0.0678,0.0677,0,0.0543,0.0576,0.066,0.0712,0.0746,0.0836,0.0915,0.0997,0.11,0.1283,0.1372,0.1415,0.1473,0.1319,0.1093,0.0891,0.0813,0.0755,0.0688,0.066,0.0607,0.0589,0.0563,0.0724,0.0724,0.0724,0.0724,0,0.0576,0.0601,0.0655,0.0759,0.0842,0.0949,0.1071,0.1166,0.1306,0.1457,0.1646,0.1707,0.1575,0.1413,0.1115,0.0958,0.0748,0.0742,0.0729,0.0665,0.0637,0.0592,0.068,0.0722,0.0722,0.0722,0.0722,0.0723,0.0599,0.0642,0.0714,0.0815,0.0917,0.1058,0.1168,0.1332,0.1527,0.1772,0.182,0.193,0.1684,0.13,0.1104,0.0765,0.0739,0.0659,0.0625,0.0614,0.0576,0.0647,0.0648,0.0648,0.0648,0.0648,0.0647,0,0.063,0.0683,0.0774,0.0899,0.1018,0.1069,0.1277,0.1422,0.1678,0.1872,0.2042,0.1948,0.1686,0.1352,0.0902,0.0703,0.0622,0.06,0.0607,0.0587,0.0681,0.0672,0.0662,0.0662,0.0662,0.0662,0.0662,0.0662,0.065,0.0728,0.0777,0.096,0.106,0.1239,0.1365,0.1605,0.1777,0.2012,0.2052,0.2058,0.1825,0.1194,0.0809,0.0693,0.0591,0.0534,0.0479,0.0575,0.0579,0.0583,0.0571,0.0539,0.0539,0.0426,0.0425,0.0424]}],[{"header":{"parameterUnit":"m.s-1","parameterCategory":2,"la1":30.2991,"la2":30.254,"lo1":-89.0895,"lo2":-89.0444,"dy":0.0017,"dx":0.0017,"nx":28,"ny":28,"refTime":"2025-06-11T09:00:00:Z","depth":"2","parameterNumber":2,"parameterNumberName":"U-component_of_CURRENTS"},"data":[0,0,0,0,0,0,0,0,0,0,0,0,0,0,0,0,0,0,0,0,0,0,0,0,0,0,0,0,0,0,0,0,0,0,0,0,0,0,0,0,0,0,0,0,0,0,0,0,0,0,0,0,0,0,0,0,0,0,0.2241,0.2241,0,0.2225,0.2224,0.2224,0.2211,0.2211,0.2211,0.2211,0.2197,0.2196,0.2196,0,0,0,0,0,0,0,0,0,0,0,0,0,0.2278,0.2277,0.2241,0.2241,0.2241,0.2225,0.2224,0.2224,0.2211,0.2211,0.2211,0.2211,0.2197,0.2196,0.2196,0,0,0,0,0,0,0,0,0,0,0,0,0,0.226,0.2277,0.2242,0.2234,0.2233,0.2225,0.2224,0.2224,0.2211,0.2211,0.2211,0.2211,0.2197,0.2196,0.2196,0.2193,0,0,0.2194,0.2194,0,0,0,0,0,0,0,0,0.2261,0.2259,0.2235,0.2234,0.2233,0.2221,0.2232,0.2214,0.2211,0.2218,0.2211,0.2211,0.2206,0.2204,0.22,0.2193,0.2192,0.2194,0.2194,0.2194,0.2193,0,0,0,0,0,0,0,0.2263,0.226,0.2234,0.2235,0.2234,0.2236,0.2233,0.2228,0.2212,0.2218,0.2217,0.2217,0.2205,0.22,0.2199,0.2192,0.2194,0.2194,0.2193,0.2193,0.2249,0.2251,0,0,0,0,0,0,0.2266,0.2261,0.2234,0.2233,0.2249,0.2236,0.2233,0.2224,0.2212,0.221,0.2217,0.2216,0.2201,0.22,0.2199,0.2242,0.2194,0.2193,0.2193,0.2247,0.225,0.2252,0,0,0,0,0,0,0.2267,0.2263,0.2235,0.2248,0.2245,0.2235,0.2226,0.2224,0.223,0.2211,0.2209,0.2227,0.2201,0.22,0.2212,0.224,0.2193,0.2192,0.2245,0.2248,0.2251,0.2299,0,0,0,0,0,0,0.2267,0.2263,0.2264,0.2248,0.2244,0.2242,0.2226,0.2224,0.223,0.2229,0.2219,0.2217,0.2201,0.2213,0.2211,0.2238,0.2192,0.2243,0.2247,0.225,0.2295,0.2303,0.231,0,0,0,0,0,0.2269,0.2269,0.2264,0.2262,0.2243,0.2243,0.2241,0.2233,0.2231,0.2238,0.2236,0.2218,0.2234,0.2213,0.2211,0.2239,0.2241,0.2246,0.225,0.2292,0.2302,0.231,0,0,0,0,0,0,0.2285,0.2267,0.2262,0.2256,0.2256,0.2241,0.2247,0.2243,0.2246,0.2249,0.2231,0.2229,0.2258,0.2243,0.2221,0.2269,0.2239,0.2243,0.2272,0.2281,0.2288,0.2304,0.2191,0,0,0,0,0,0.2289,0.2284,0.2272,0.2271,0.2272,0.2263,0.2264,0.2261,0.2258,0.2259,0.2253,0.2256,0.2272,0.2271,0.228,0.2293,0.2316,0.2315,0.2322,0.2328,0.2342,0.2416,0.2431,0.2265,0.2265,0.2265,0,0,0.2294,0.2285,0.2281,0.2274,0.2272,0.2278,0.2264,0.2271,0.2282,0.2258,0.2276,0.2284,0.2285,0.2309,0.2321,0.2298,0.2387,0.2333,0.2338,0.2349,0.2422,0.2438,0.2452,0.2268,0.2267,0.2267,0,0,0.2302,0.2296,0.2296,0.2298,0.23,0.2298,0.2305,0.2302,0.2309,0.2326,0.2324,0.2352,0.2354,0.2368,0.2373,0.2428,0.2432,0.2431,0.2468,0.254,0.2554,0.2567,0.2613,0.263,0.2425,0.2425,0.2425,0,0.2312,0.2303,0.2299,0.2304,0.2309,0.2311,0.232,0.2329,0.2333,0.235,0.2341,0.2396,0.2387,0.2438,0.2453,0.2445,0.248,0.2429,0.255,0.2563,0.2575,0.262,0.2637,0.2428,0.2427,0.2427,0.2427,0,0.2315,0.2317,0.2321,0.2325,0.2336,0.2344,0.2356,0.2376,0.2388,0.2401,0.2461,0.247,0.2505,0.2509,0.249,0.2575,0.257,0.2558,0.2525,0.2595,0.2637,0.2655,0.2432,0.2431,0.243,0.2429,0,0,0.2311,0.232,0.2322,0.2327,0.2347,0.2351,0.2388,0.2418,0.2454,0.2482,0.2542,0.2571,0.2594,0.2604,0.2604,0.2652,0.2755,0.2639,0.2641,0.2681,0.2909,0.2764,0.2769,0.2769,0.2773,0.2775,0.2901,0,0.2315,0.2321,0.2332,0.235,0.2354,0.2379,0.2412,0.2447,0.2488,0.2549,0.2595,0.2654,0.2626,0.2659,0.2707,0.2751,0.2805,0.2721,0.2839,0.2842,0.2702,0.2786,0.2513,0.259,0.2918,0.2921,0.2923,0,0.2307,0.2314,0.2326,0.2356,0.2363,0.2383,0.2443,0.248,0.257,0.2613,0.2693,0.2732,0.2818,0.2788,0.2913,0.2865,0.2896,0.2922,0.2928,0.2789,0.273,0.2576,0.261,0.2953,0.295,0.2948,0.2946,0,0.2284,0.2308,0.2316,0.2323,0.2362,0.2385,0.2421,0.2498,0.2555,0.2674,0.2741,0.2839,0.2911,0.298,0.3015,0.2987,0.3148,0.3114,0.3019,0.3008,0.2796,0.276,0.3221,0.322,0.322,0.322,0.3219,0,0.227,0.2276,0.2305,0.2307,0.2336,0.2377,0.2438,0.2496,0.2611,0.2688,0.2782,0.2864,0.2967,0.3052,0.3075,0.3095,0.3202,0.3047,0.3041,0.2802,0.2766,0.309,0.3073,0.3224,0.3223,0.3222,0.3222,0,0.2236,0.2253,0.2263,0.2304,0.232,0.2346,0.2441,0.2493,0.2613,0.2728,0.2778,0.2925,0.3015,0.3089,0.3202,0.3157,0.3197,0.3177,0.287,0.2823,0.2998,0.2982,0.3097,0.3093,0.309,0.3087,0.3085,0,0.2216,0.2216,0.225,0.2263,0.2281,0.2331,0.2367,0.2482,0.2559,0.2742,0.2802,0.2933,0.2971,0.3076,0.3028,0.3041,0.315,0.2806,0.2686,0.3008,0.2991,0.2981,0.297,0.2437,0.243,0.2424,0.2419,0,0.2184,0.2196,0.2205,0.2235,0.2262,0.2294,0.2371,0.2421,0.2561,0.2659,0.277,0.2809,0.286,0.2723,0.2725,0.27,0.2772,0.2679,0.3141,0.2485,0.2389,0.2371,0.2382,0.2365,0.237,0.2374,0.2377,0.2379,0.2162,0.2162,0.2183,0.22,0.224,0.2257,0.2249,0.2327,0.2406,0.248,0.2602,0.256,0.255,0.2382,0.2301,0.2237,0.2439,0.2335,0.2354,0.2379,0.2255,0.2155,0.2064,0.2068,0.2071,0.2074,0.2076,0,0.2135,0.2139,0.2152,0.2155,0.2166,0.2221,0.2251,0.2205,0.2221,0.227,0.2296,0.2056,0.1931,0.194,0.1727,0.17,0.1687,0.1649,0.1615,0.1669,0.1718,0.1559,0.1185,0.1183,0.118,0.1178,0,0,0.2124,0.2113,0.2108,0.2086,0.2106,0.207,0.2065,0.199,0.1977,0.1866,0.1803,0.1876,0.1899,0.1539,0.1463,0.1292,0.1485,0.1236,0.1952,0.1969,0.2015,0.211,0.1927,0,0,0,0,0]},{"header":{"parameterUnit":"m.s-1","parameterCategory":2,"la1":30.2991,"la2":30.254,"lo1":-89.0895,"lo2":-89.0444,"dy":0.0017,"dx":0.0017,"nx":28,"ny":28,"refTime":"2025-06-11T09:00:00:Z","depth":"2","parameterNumber":3,"parameterNumberName":"V-component_of_CURRENTS"},"data":[0,0,0,0,0,0,0,0,0,0,0,0,0,0,0,0,0,0,0,0,0,0,0,0,0,0,0,0,0,0,0,0,0,0,0,0,0,0,0,0,0,0,0,0,0,0,0,0,0,0,0,0,0,0,0,0,0,0,0.02,0.02,0,0.0194,0.0194,0.0194,0.019,0.019,0.019,0.019,0.0179,0.0178,0.0178,0,0,0,0,0,0,0,0,0,0,0,0,0,0.0189,0.019,0.02,0.02,0.02,0.0194,0.0194,0.0194,0.019,0.019,0.019,0.019,0.0179,0.0178,0.0178,0,0,0,0,0,0,0,0,0,0,0,0,0,0.019,0.019,0.02,0.0197,0.0197,0.0194,0.0194,0.0194,0.019,0.019,0.019,0.019,0.0179,0.0178,0.0178,0.0175,0,0,0.0176,0.0176,0,0,0,0,0,0,0,0,0.019,0.019,0.0198,0.0197,0.0197,0.0193,0.0186,0.0188,0.019,0.0192,0.019,0.019,0.0183,0.0182,0.0181,0.0174,0.0174,0.0176,0.0176,0.0176,0.0176,0,0,0,0,0,0,0,0.019,0.019,0.0197,0.0198,0.0197,0.0191,0.0191,0.0186,0.0187,0.0192,0.0192,0.0192,0.0183,0.0181,0.0181,0.0174,0.0176,0.0176,0.0176,0.0176,0.018,0.018,0,0,0,0,0,0,0.0192,0.019,0.0197,0.0197,0.0194,0.0191,0.0191,0.0194,0.0188,0.0187,0.0192,0.0192,0.0182,0.0181,0.018,0.0201,0.0176,0.0175,0.0175,0.0179,0.018,0.018,0,0,0,0,0,0,0.0192,0.0193,0.0198,0.0193,0.0194,0.0191,0.0195,0.0194,0.0197,0.0188,0.0187,0.0196,0.0182,0.0181,0.0184,0.0199,0.0175,0.0175,0.0179,0.0179,0.018,0.0226,0,0,0,0,0,0,0.0192,0.0193,0.0196,0.0194,0.0194,0.0203,0.0195,0.0194,0.0197,0.0196,0.019,0.0189,0.0182,0.0185,0.0183,0.0198,0.0174,0.0178,0.0179,0.018,0.0224,0.0228,0.0232,0,0,0,0,0,0.0191,0.0198,0.0196,0.0197,0.0198,0.0203,0.0203,0.02,0.0197,0.0202,0.0198,0.0189,0.0188,0.0185,0.0183,0.0198,0.0178,0.0179,0.018,0.0222,0.0228,0.0232,0,0,0,0,0,0,0.0193,0.0198,0.0196,0.0203,0.0205,0.0203,0.0207,0.0204,0.0204,0.0204,0.0194,0.0193,0.0201,0.0191,0.0187,0.02,0.0182,0.0182,0.0215,0.0219,0.0223,0.0238,0.0174,0,0,0,0,0,0.0196,0.0204,0.0204,0.021,0.0213,0.021,0.0211,0.0209,0.0209,0.0209,0.0206,0.0201,0.0203,0.0204,0.02,0.0208,0.0199,0.0215,0.0219,0.0223,0.0234,0.0232,0.0237,0.0183,0.0183,0.0183,0,0,0.0197,0.0201,0.0205,0.0211,0.0213,0.0226,0.0211,0.0216,0.023,0.0208,0.0225,0.0214,0.0206,0.0217,0.022,0.0212,0.0232,0.0224,0.0227,0.0236,0.0234,0.0239,0.0244,0.0184,0.0183,0.0183,0,0,0.021,0.021,0.0223,0.0229,0.0235,0.0236,0.024,0.0241,0.0245,0.0255,0.0244,0.0246,0.0244,0.0247,0.0247,0.0268,0.025,0.0262,0.0299,0.0297,0.0302,0.0306,0.0297,0.03,0.0267,0.0267,0.0267,0,0.0212,0.0231,0.0227,0.0244,0.0256,0.0245,0.0266,0.0269,0.027,0.028,0.0267,0.0277,0.0263,0.0288,0.0291,0.0279,0.027,0.0283,0.0303,0.0307,0.031,0.0301,0.0303,0.0269,0.0269,0.0269,0.0269,0,0.0238,0.0253,0.0263,0.0285,0.0296,0.0311,0.0317,0.0326,0.0327,0.0329,0.0349,0.0334,0.0345,0.0335,0.0318,0.0339,0.0322,0.0307,0.0294,0.0319,0.0307,0.0309,0.0273,0.0272,0.0271,0.0271,0,0,0.0247,0.0277,0.0281,0.0305,0.0321,0.0337,0.0361,0.0384,0.0413,0.0404,0.0443,0.0429,0.042,0.042,0.0402,0.0394,0.0399,0.0361,0.036,0.0358,0.0391,0.0365,0.0364,0.0385,0.0386,0.0387,0.0372,0,0.0273,0.0317,0.0324,0.037,0.0398,0.0402,0.0433,0.0449,0.0461,0.0493,0.0479,0.0506,0.0455,0.0469,0.0452,0.042,0.0407,0.0404,0.0364,0.0363,0.0341,0.0367,0.0382,0.0369,0.0374,0.0374,0.0374,0,0.0301,0.0331,0.038,0.043,0.0444,0.0468,0.0524,0.0551,0.058,0.0594,0.0608,0.0597,0.0599,0.0551,0.0508,0.0509,0.0453,0.0417,0.0415,0.0379,0.0341,0.0345,0.0372,0.0377,0.0377,0.0377,0.0377,0,0.0325,0.0373,0.0418,0.0434,0.0484,0.0512,0.0543,0.0581,0.063,0.0669,0.0713,0.0692,0.0713,0.0642,0.0559,0.0537,0.0505,0.0467,0.0391,0.0388,0.0387,0.0383,0.0432,0.0432,0.0432,0.0432,0.0432,0,0.0356,0.0392,0.0434,0.0461,0.0528,0.055,0.0626,0.0655,0.0721,0.0802,0.0775,0.0837,0.0737,0.0704,0.06,0.051,0.0537,0.0407,0.0388,0.0402,0.04,0.0395,0.0391,0.0431,0.0431,0.0431,0.0432,0,0.0377,0.04,0.0458,0.0516,0.0541,0.0592,0.0688,0.075,0.0805,0.0916,0.0941,0.0956,0.0917,0.0802,0.0697,0.0584,0.0487,0.0442,0.0461,0.0444,0.0356,0.0354,0.0359,0.0358,0.0357,0.0357,0.0356,0,0.0391,0.0422,0.0498,0.0543,0.0573,0.0651,0.0716,0.0787,0.0875,0.0999,0.107,0.1064,0.1078,0.091,0.072,0.0542,0.0503,0.0417,0.0371,0.037,0.0351,0.0351,0.0351,0.0387,0.0387,0.0387,0.0386,0,0.0422,0.0445,0.0494,0.0587,0.0657,0.0748,0.0854,0.0938,0.1049,0.1161,0.1289,0.1304,0.1151,0.0984,0.0723,0.0591,0.0443,0.0405,0.0424,0.0398,0.0394,0.0376,0.0375,0.0385,0.0385,0.0385,0.0385,0.0385,0.0443,0.0481,0.0546,0.0636,0.0727,0.0849,0.0933,0.1073,0.1232,0.1391,0.1406,0.1428,0.1224,0.0895,0.0678,0.0438,0.0451,0.0342,0.0344,0.0346,0.0346,0.0341,0.0322,0.0321,0.0321,0.0321,0.0321,0,0.0471,0.0519,0.0598,0.0704,0.081,0.0856,0.1031,0.1135,0.1336,0.1451,0.1543,0.1337,0.1157,0.0914,0.0575,0.0367,0.0344,0.0276,0.0304,0.0308,0.0311,0.031,0.0275,0.0274,0.0273,0.0272,0,0,0.0488,0.0557,0.0597,0.0755,0.0842,0.098,0.1084,0.1264,0.1389,0.1496,0.1506,0.1478,0.1221,0.0951,0.068,0.0486,0.0435,0.0431,0.0493,0.0563,0.0568,0.0376,0.0383,0,0,0,0,0]}],[{"header":{"parameterUnit":"m.s-1","parameterCategory":2,"la1":30.2991,"la2":30.254,"lo1":-89.0895,"lo2":-89.0444,"dy":0.0017,"dx":0.0017,"nx":28,"ny":28,"refTime":"2025-06-11T09:00:00:Z","depth":"4","parameterNumber":2,"parameterNumberName":"U-component_of_CURRENTS"},"data":[0,0,0,0,0,0,0,0,0,0,0,0,0,0,0,0,0,0,0,0,0,0,0,0,0,0,0,0,0,0,0,0,0,0,0,0,0,0,0,0,0,0,0,0,0,0,0,0,0,0,0,0,0,0,0,0,0,0,0.1422,0.1422,0,0.1441,0.1441,0.1441,0.1477,0.1478,0.1479,0.148,0.1524,0.1525,0.1525,0,0,0,0,0,0,0,0,0,0,0,0,0,0.1414,0.1414,0.1422,0.1422,0.1423,0.1441,0.1441,0.1441,0.1477,0.1478,0.1479,0.148,0.1524,0.1525,0.1525,0,0,0,0,0,0,0,0,0,0,0,0,0,0.1423,0.1414,0.1422,0.1443,0.1446,0.1441,0.1441,0.1441,0.1477,0.1478,0.1479,0.1481,0.1524,0.1525,0.1525,0.1506,0,0,0.1527,0.1528,0,0,0,0,0,0,0,0,0.1422,0.1423,0.144,0.1442,0.1444,0.1459,0.1455,0.1464,0.1477,0.1464,0.148,0.1481,0.1505,0.1507,0.1506,0.1508,0.151,0.1527,0.1528,0.1528,0.1528,0,0,0,0,0,0,0,0.1422,0.1422,0.1428,0.144,0.1443,0.1451,0.1454,0.1457,0.1477,0.1465,0.1468,0.1472,0.1506,0.1505,0.1507,0.151,0.1527,0.1528,0.1528,0.1529,0.1598,0.1599,0,0,0,0,0,0,0.142,0.1421,0.1428,0.1429,0.1437,0.1451,0.1453,0.1452,0.1477,0.1482,0.147,0.1473,0.1504,0.1507,0.1509,0.1574,0.1528,0.1529,0.1529,0.1596,0.1598,0.1599,0,0,0,0,0,0,0.142,0.142,0.1427,0.1427,0.1429,0.145,0.1448,0.1452,0.1484,0.148,0.1486,0.1502,0.1505,0.1508,0.154,0.1573,0.1529,0.153,0.1594,0.1597,0.1599,0.1649,0,0,0,0,0,0,0.1419,0.142,0.1435,0.1427,0.1429,0.1445,0.1447,0.1452,0.1483,0.1487,0.1509,0.1512,0.1506,0.1539,0.1541,0.1573,0.153,0.1593,0.1595,0.1598,0.1645,0.1652,0.1658,0,0,0,0,0,0.1419,0.1427,0.1435,0.1437,0.1443,0.1445,0.1448,0.1466,0.1483,0.1499,0.1518,0.1513,0.1558,0.154,0.1542,0.1576,0.1591,0.1595,0.1598,0.1642,0.1651,0.1658,0,0,0,0,0,0,0.1434,0.1432,0.144,0.145,0.1459,0.1453,0.1473,0.1483,0.1509,0.1525,0.1524,0.1529,0.1573,0.1566,0.1547,0.1605,0.1577,0.158,0.161,0.1618,0.1624,0.1627,0.1531,0,0,0,0,0,0.1443,0.1452,0.145,0.1463,0.147,0.1478,0.1489,0.15,0.1513,0.1527,0.1542,0.1561,0.158,0.1594,0.1606,0.163,0.1635,0.1656,0.1663,0.1668,0.1672,0.1713,0.1724,0.161,0.161,0.161,0,0,0.1453,0.1454,0.1461,0.1468,0.1478,0.1487,0.1489,0.1513,0.1531,0.1527,0.1571,0.1587,0.1593,0.1626,0.1645,0.1628,0.1703,0.1672,0.1677,0.1678,0.1718,0.1729,0.1739,0.1612,0.1612,0.1611,0,0,0.1464,0.1481,0.1489,0.1497,0.1516,0.1519,0.1533,0.1546,0.157,0.1602,0.1611,0.1647,0.1671,0.1682,0.1689,0.1738,0.174,0.1752,0.1784,0.1824,0.1833,0.1842,0.1861,0.1871,0.1752,0.1752,0.1752,0,0.1483,0.1485,0.1494,0.1503,0.1515,0.1536,0.1548,0.1568,0.1595,0.1618,0.1628,0.1688,0.1695,0.1733,0.1754,0.1753,0.1772,0.1751,0.1832,0.1841,0.1849,0.1866,0.1876,0.1754,0.1754,0.1754,0.1754,0,0.1484,0.1503,0.1511,0.1527,0.1543,0.156,0.158,0.1615,0.165,0.1668,0.1731,0.1747,0.1783,0.1796,0.179,0.1853,0.1847,0.1839,0.1811,0.1863,0.1878,0.1888,0.1758,0.1757,0.1757,0.1756,0,0,0.148,0.1507,0.1514,0.1526,0.1559,0.1564,0.1611,0.1647,0.168,0.1731,0.1776,0.1823,0.1849,0.1859,0.1868,0.1901,0.1971,0.19,0.1901,0.1916,0.2058,0.1904,0.19,0.1986,0.1988,0.199,0.2045,0,0.1483,0.1499,0.1516,0.1543,0.1551,0.159,0.1623,0.1666,0.1711,0.1761,0.181,0.1857,0.1868,0.1896,0.1937,0.1965,0.2,0.1956,0.2008,0.2009,0.1863,0.1907,0.1996,0.2053,0.2055,0.2056,0.2057,0,0.147,0.1485,0.151,0.1544,0.1554,0.1579,0.1639,0.1672,0.1748,0.179,0.186,0.1895,0.1968,0.1962,0.2055,0.2033,0.2056,0.207,0.2072,0.1916,0.1872,0.199,0.2075,0.2073,0.2072,0.2071,0.207,0,0.1438,0.1476,0.1498,0.151,0.1555,0.1588,0.1623,0.169,0.1724,0.1819,0.1858,0.1947,0.2002,0.2058,0.2106,0.2095,0.219,0.2171,0.2051,0.204,0.2141,0.2131,0.2232,0.2232,0.2232,0.2232,0.2232,0,0.141,0.1431,0.1491,0.1498,0.153,0.1575,0.1617,0.1672,0.1748,0.1781,0.1878,0.1916,0.2035,0.2098,0.2128,0.2119,0.2217,0.206,0.2046,0.216,0.2152,0.2148,0.2137,0.2234,0.2233,0.2233,0.2233,0,0.1361,0.1402,0.1429,0.1492,0.1514,0.1541,0.1606,0.1622,0.1721,0.1772,0.1809,0.1928,0.2006,0.2091,0.2179,0.2127,0.2139,0.2111,0.2228,0.222,0.1956,0.1948,0.1971,0.1966,0.1962,0.1959,0.1956,0,0.1331,0.1343,0.1417,0.1428,0.1461,0.1504,0.1516,0.1605,0.1621,0.1752,0.1759,0.1881,0.1944,0.1953,0.2051,0.2091,0.2071,0.2052,0.1997,0.1946,0.1931,0.1929,0.1927,0.1949,0.1948,0.1947,0.1946,0,0.1276,0.1321,0.1343,0.1367,0.1388,0.1392,0.1428,0.1434,0.1526,0.1634,0.1669,0.1712,0.1791,0.186,0.191,0.1933,0.2047,0.2008,0.2016,0.1964,0.1919,0.1908,0.1911,0.1931,0.1933,0.1935,0.1935,0,0.1243,0.1243,0.1276,0.1281,0.1302,0.1268,0.1299,0.1309,0.1344,0.1494,0.1503,0.1639,0.1766,0.1778,0.1821,0.1834,0.1803,0.173,0.1752,0.1769,0.1677,0.1588,0.1489,0,0,0,0,0,0.1198,0.1176,0.1176,0.115,0.1161,0.1165,0.1222,0.1255,0.1356,0.1336,0.1417,0.1481,0.1542,0.1616,0.1592,0.1729,0.181,0.169,0.1737,0.1851,0.1867,0.1777,0,0,0,0,0,0,0.116,0.1166,0.1143,0.104,0.0992,0.097,0.1005,0.1072,0.1071,0.1206,0.126,0.136,0.1461,0.1539,0.1553,0.1574,0.1565,0.1779,0.1774,0.1841,0.1856,0.187,0.1782,0,0,0,0,0]},{"header":{"parameterUnit":"m.s-1","parameterCategory":2,"la1":30.2991,"la2":30.254,"lo1":-89.0895,"lo2":-89.0444,"dy":0.0017,"dx":0.0017,"nx":28,"ny":28,"refTime":"2025-06-11T09:00:00:Z","depth":"4","parameterNumber":3,"parameterNumberName":"V-component_of_CURRENTS"},"data":[0,0,0,0,0,0,0,0,0,0,0,0,0,0,0,0,0,0,0,0,0,0,0,0,0,0,0,0,0,0,0,0,0,0,0,0,0,0,0,0,0,0,0,0,0,0,0,0,0,0,0,0,0,0,0,0,0,0,0.0103,0.0103,0,0.0102,0.0102,0.0102,0.0102,0.0102,0.0102,0.0102,0.01,0.01,0.01,0,0,0,0,0,0,0,0,0,0,0,0,0,0.0094,0.0095,0.0103,0.0103,0.0103,0.0102,0.0102,0.0102,0.0102,0.0102,0.0102,0.0102,0.0101,0.01,0.01,0,0,0,0,0,0,0,0,0,0,0,0,0,0.0096,0.0095,0.0103,0.0103,0.0103,0.0102,0.0102,0.0102,0.0102,0.0102,0.0102,0.0102,0.0101,0.01,0.01,0.0099,0,0,0.01,0.01,0,0,0,0,0,0,0,0,0.0096,0.0096,0.0103,0.0103,0.0103,0.0102,0.0098,0.0101,0.0102,0.0102,0.0102,0.0102,0.0101,0.0101,0.01,0.0099,0.0098,0.01,0.01,0.01,0.01,0,0,0,0,0,0,0,0.0096,0.0096,0.0102,0.0103,0.0103,0.0099,0.01,0.0099,0.0101,0.0102,0.0102,0.0102,0.0101,0.01,0.01,0.0098,0.01,0.01,0.01,0.01,0.0108,0.0108,0,0,0,0,0,0,0.0097,0.0096,0.0102,0.0102,0.01,0.01,0.01,0.0102,0.0101,0.0101,0.0102,0.0102,0.0101,0.01,0.01,0.0117,0.01,0.01,0.01,0.0108,0.0108,0.0108,0,0,0,0,0,0,0.0097,0.0098,0.0102,0.0099,0.01,0.01,0.0102,0.0102,0.0105,0.0101,0.0101,0.0106,0.0101,0.01,0.0105,0.0116,0.01,0.01,0.0107,0.0108,0.0108,0.0138,0,0,0,0,0,0,0.0097,0.0098,0.01,0.0099,0.01,0.0107,0.0102,0.0102,0.0105,0.0105,0.0104,0.0104,0.0101,0.0105,0.0105,0.0116,0.01,0.0107,0.0108,0.0108,0.0137,0.014,0.0142,0,0,0,0,0,0.0096,0.0101,0.01,0.0101,0.0103,0.0107,0.0107,0.0107,0.0105,0.0109,0.0109,0.0104,0.0109,0.0106,0.0105,0.0116,0.0107,0.0107,0.0108,0.0136,0.0139,0.0142,0,0,0,0,0,0,0.0097,0.0101,0.0101,0.0106,0.0108,0.0107,0.0111,0.0109,0.0112,0.0112,0.0108,0.0108,0.0116,0.011,0.0107,0.0119,0.0107,0.0107,0.0128,0.0131,0.0134,0.0139,0.0099,0,0,0,0,0,0.0099,0.0104,0.0106,0.011,0.0112,0.0112,0.0113,0.0113,0.0114,0.0115,0.0115,0.0115,0.0117,0.012,0.0118,0.0126,0.0112,0.0132,0.0135,0.0137,0.0141,0.0132,0.0134,0.011,0.011,0.011,0,0,0.0099,0.0103,0.0105,0.0111,0.0113,0.0123,0.0113,0.0117,0.0128,0.0115,0.0129,0.0123,0.012,0.0129,0.0132,0.0127,0.0134,0.0138,0.014,0.0142,0.0133,0.0135,0.0137,0.0111,0.0111,0.0111,0,0,0.0107,0.0108,0.0117,0.0123,0.0128,0.013,0.0133,0.0134,0.0139,0.0148,0.0142,0.0143,0.0147,0.0148,0.0149,0.0165,0.0146,0.0163,0.0184,0.0176,0.0178,0.018,0.0156,0.0155,0.0167,0.0167,0.0167,0,0.0108,0.0121,0.012,0.0132,0.0142,0.0136,0.0152,0.0154,0.0158,0.0166,0.0158,0.0166,0.0158,0.0175,0.0177,0.0172,0.0157,0.0174,0.018,0.0181,0.0182,0.0157,0.0156,0.0168,0.0168,0.0168,0.0168,0,0.0124,0.0137,0.0143,0.016,0.017,0.018,0.0187,0.0195,0.0198,0.0201,0.0214,0.0203,0.0211,0.0205,0.0195,0.0204,0.0186,0.0182,0.0173,0.0186,0.0159,0.0158,0.017,0.017,0.0169,0.0169,0,0,0.0128,0.0151,0.0155,0.0173,0.0187,0.02,0.0219,0.0237,0.0259,0.0252,0.0277,0.0268,0.026,0.026,0.0247,0.0235,0.0221,0.0212,0.0211,0.019,0.019,0.0181,0.0178,0.0218,0.0218,0.0218,0.0165,0,0.0144,0.0176,0.0183,0.0219,0.0239,0.0245,0.027,0.0284,0.0294,0.0314,0.03,0.0316,0.0283,0.029,0.0272,0.024,0.0219,0.0235,0.0179,0.0177,0.0169,0.0177,0.0218,0.0163,0.0163,0.0162,0.0162,0,0.0161,0.0184,0.022,0.0261,0.0272,0.0293,0.0336,0.0358,0.0377,0.0385,0.0389,0.0377,0.0365,0.0335,0.0282,0.0293,0.0242,0.0207,0.0204,0.0186,0.0165,0.0148,0.0158,0.0159,0.0159,0.0159,0.0159,0,0.0174,0.0212,0.0246,0.0259,0.03,0.0324,0.035,0.038,0.0415,0.0433,0.0456,0.0433,0.0433,0.0372,0.0295,0.029,0.0227,0.0213,0.0153,0.0151,0.0161,0.016,0.0168,0.0168,0.0168,0.0168,0.0169,0,0.0192,0.022,0.0256,0.0277,0.0329,0.035,0.041,0.043,0.0475,0.0525,0.0498,0.0521,0.0442,0.0397,0.0314,0.0231,0.0242,0.0157,0.0142,0.0173,0.0174,0.0159,0.0158,0.0166,0.0167,0.0167,0.0168,0,0.0201,0.0222,0.0266,0.0315,0.0337,0.0377,0.0455,0.0503,0.0534,0.0598,0.0608,0.0591,0.0535,0.0444,0.0343,0.0266,0.018,0.0142,0.0176,0.0163,0.01,0.0102,0.0074,0.0073,0.0073,0.0072,0.0072,0,0.0208,0.023,0.0293,0.033,0.0355,0.042,0.0475,0.0529,0.0589,0.0641,0.0677,0.0641,0.0612,0.0465,0.0357,0.0203,0.0174,0.0114,0.0108,0.0105,0.0092,0.0095,0.0098,0.0071,0.0071,0.0071,0.0071,0,0.0222,0.0243,0.0281,0.0355,0.0416,0.0495,0.0575,0.0622,0.0694,0.0715,0.0736,0.0664,0.06,0.0474,0.0354,0.024,0.0148,0.0108,0.0108,0.0102,0.0101,0.009,0.0093,0.0069,0.0069,0.0069,0.0069,0,0.0233,0.026,0.0312,0.0381,0.0462,0.0556,0.0595,0.0668,0.0725,0.0779,0.0777,0.0704,0.0659,0.0494,0.0385,0.0274,0.0239,0.018,0.0176,0.0177,0.0219,0.0234,0.0233,0,0,0,0,0,0.0243,0.0279,0.0338,0.0422,0.0507,0.0559,0.0663,0.0702,0.0762,0.0783,0.0786,0.0725,0.0573,0.0508,0.0397,0.0365,0.0213,0.0228,0.0143,0.0058,0.006,0.0092,0,0,0,0,0,0,0.0251,0.0302,0.0335,0.0448,0.0512,0.0616,0.0686,0.0728,0.0744,0.0774,0.07,0.0667,0.0526,0.0632,0.0384,0.0352,0.0275,0.0162,0.0159,0.0057,0.0059,0.0061,0.0094,0,0,0,0,0]}]]